Location: Peebles
(55.6412°N, 3.1714°W)
Time: 23:21:16
(UTC+01:00)

CENTAUR R/B - Pass Details

Date: 21 January 2022
Orbit: 716 x 1471 km, 63.4° (Epoch: 08 May)

Event Time Altitude Azimuth Distance (km) Brightness Sun altitude
Rises 22:55:14 0° 304° (WNW) 3,946 6.2 -50.4°
Reaches altitude 10° 22:57:47 10° 306° (NW) 3,086 5.5 -50.6°
Enters shadow 22:59:18 18° 309° (NW) 2,591 5.0 -50.7°
